User: anonymous   Login
Location: Unspecified
(0.0000°N, 0.0000°E)
Time: 22:41:30
(UTC+00:00)
Language:

OPTUS 1C - Orbit

View from above orbital plane
View from above orbital plane
View from above satellite
View from above satellite

Ground track
Ground track

The orbit data is extracted from the following two-line orbital elements,

1 27831U 03028B   15031.76545731 -.00000164  00000-0  00000+0 0  3492
2 27831 000.0279 165.9976 0003214 120.9773 275.2262 01.00273021 42663
Epoch (UTC): 31 January 2015 18:22:15
Eccentricity: 0.0003214
inclination: 0.0279°
perigee height: 35772 km
apogee height: 35799 km
right ascension of ascending node: 165.9976°
argument of perigee: 120.9773°
revolutions per day: 1.00273021
mean anomaly at epoch: 275.2262°
orbit number at epoch: 4266

The dashed part of the orbit path shows where the satellite is in the earth's shadow,  

DLR